Location: Casaglia
(44.0333°N, 11.5167°E)
Time: 03:13:35
(UTC+00:00)

Cosmos 1763 Rocket - Pass Details

Date: 07 June 2020
Orbit: 733 x 780 km, 74.0° (Epoch: 11 July)

Event Time Altitude Azimuth Distance (km) Brightness Sun altitude
Exits shadow 00:05:59 35° 251° (WSW) 1,169 4.2 -22.1°
Maximum altitude 00:07:30 46° 296° (WNW) 981 4.1 -22.0°
Drops below altitude 10° 00:12:23 10° 10° (N) 2,244 7.1 -21.8°
Sets 00:14:50 0° 16° (NNE) 3,170 8.2 -21.7°
